Weather in La Trinidad

Philippines     16°27′42″N   120°34′50″E
temp.,
°C
wind,
m/s
gust,
m/s
humid.,
%
clouds,
%
prec.,
mm/h
press.,
hPa
HPBL,
m
22 january, fri
fri2223:00+22ese119389 3.4 101023
02:00+21ese129095 5.8 100924
05:00+21ese1288100 0.3 100927
08:00+23e118295 0.3 101072
11:00+26w217637 0.9 1010671
14:00+25wnw218547 8.6 1008480
17:00+22wnw229898 8.8 1008173
20:00+22ene349799 65.8 1010183
23 january, sat
sat2323:00+21se1288100 2.4 101028
02:00+20e1192100 2.4 100926
05:00+20e1187100 0.0 100923
08:00+23e118299 0.1 101158
11:00+23nnw1185100 0.4 1011131
14:00+26wnw2276100 1.9 1009584
17:00+24wnw1189100 3.9 1009271
20:00+21se129497 4.2 101129
24 january, sun
sun2423:00+21ese129220 1.1 101128
02:00+21e129011 2.0 101130
05:00+21e22895 0.3 101031
08:00+23e118413 1.3 101287
11:00+25wnw228225 3.0 1013424
14:00+24wnw228848 13.4 1011384
17:00+23s1191100 6.2 101157
20:00+22ese1289100 7.4 101227
25 january, mon
mon2523:00+21e2289100 0.0 101341
02:00+20e228896 0.0 101240
05:00+19e238635 0.0 101238
08:00+22e228018 0.0 101482
11:00+26w216737 0.0 1014723
14:00+25w217854 1.4 1011582
17:00+23nnw119078 3.4 1011195
20:00+22sse119165 4.6 101323
26 january, tue
tue2623:00+20ene129138 0.1 101328
02:00+20e129020 0.2 101228
05:00+20e22881 0.1 101229
08:00+22ene118236 0.1 101385
11:00+26w216693 0.0 1013778
14:00+25wsw228093 1.1 1011550
17:00+23nw118899 3.8 1010364
20:00+21e129290 7.2 101229